Location: Gourdan-Polignan
(43.0709°N, 0.5748°E)
Time: 08:36:41
(UTC+00:00)

ISS - Pass Details

Date: 15 May 2026
Orbit: 413 x 423 km, 51.6° (Epoch: 5 June)

Event Time Altitude Azimuth Distance (km) Brightness Sun altitude
Rises 21:20:12 0° 298° (WNW) 2,350 1.2 -18.5°
Reaches altitude 10° 21:22:43 10° 317° (NW) 1,488 0.3 -18.8°
Maximum altitude 21:25:11 19° 5° (N) 1,068 -1.1 -19.1°
Drops below altitude 10° 21:27:39 10° 52° (NE) 1,490 -1.0 -19.4°
Enters shadow 21:28:08 - 58° (ENE) 1,642 -0.8 -19.4°
